Location: Caltech
(34.1382°N, 118.1253°W)
Time: 01:14:41
(UTC-07:00)

AO-27 - Visible Passes

Search period start: 21 August 2014 00:00
Search period end: 31 August 2014 00:00
Orbit: 786 x 799 km, 98.7° (Epoch: 20 August)

Date Brightness Start Highest point End Pass type
(mag) Time Alt. Az. Time Alt. Az. Time Alt. Az.
21 Aug 8.7 03:16:34 10° N 03:19:48 39° N 03:19:48 39° N visible
22 Aug 9.3 02:47:53 10° NNE 02:50:35 30° NE 02:50:35 30° NE visible
22 Aug 9.5 04:29:01 10° NNW 04:31:21 15° NW 04:31:21 15° NW visible
23 Aug 10.0 02:19:40 10° NE 02:21:21 18° NE 02:21:21 18° NE visible
23 Aug 9.0 03:59:05 10° N 04:02:07 26° NW 04:02:07 26° NW visible
24 Aug 8.8 03:29:49 10° N 03:32:53 35° NNW 03:32:53 35° NNW visible
25 Aug 9.2 03:00:57 10° NNE 03:03:40 32° NNE 03:03:40 32° NNE visible
25 Aug 9.8 04:43:23 10° NW 04:44:26 11° WNW 04:44:26 11° WNW visible
26 Aug 9.9 02:32:30 10° NNE 02:34:26 21° NE 02:34:26 21° NE visible
26 Aug 9.3 04:12:38 10° NNW 04:15:12 20° NW 04:15:12 20° NW visible
27 Aug 10.5 02:04:41 10° NE 02:05:12 12° NE 02:05:12 12° NE visible
27 Aug 9.0 03:43:08 10° N 03:45:58 29° NNW 03:45:58 29° NNW visible
28 Aug 9.2 03:14:06 10° N 03:16:44 31° N 03:16:44 31° N visible
29 Aug 9.7 02:45:27 10° NNE 02:47:30 23° NE 02:47:30 23° NE visible
29 Aug 9.6 04:26:24 10° NNW 04:28:16 15° NW 04:28:16 15° NW visible
30 Aug 10.3 02:17:18 10° NE 02:18:16 14° NE 02:18:16 14° NE visible
30 Aug 9.2 03:56:33 10° N 03:59:02 23° NNW 03:59:02 23° NNW visible
